MDT,Max TemperatureF,Mean TemperatureF,Min TemperatureF,Max Dew PointF,MeanDew PointF,Min DewpointF,Max Humidity, Mean Humidity, Min Humidity, Max Sea Level PressureIn, Mean Sea Level PressureIn, Min Sea Level PressureIn, Max VisibilityMiles, Mean VisibilityMiles, Min VisibilityMiles, Max Wind SpeedMPH, Mean Wind SpeedMPH, Max Gust SpeedMPH,PrecipitationIn, CloudCover, Events, WindDirDegrees
2012-10-1,67,53,38,34,30,24,70,46,22,30.28,30.15,29.99,10,10,10,16,7,20,0.00,0,,285
2012-10-2,76,62,48,29,23,14,42,27,12,29.98,29.86,29.75,10,10,10,31,18,39,0.00,0,,250
2012-10-3,69,50,30,28,22,2,72,40,7,30.34,29.91,29.73,10,10,10,35,18,45,0.00,1,,290
2012-10-4,52,36,19,21,18,15,84,54,24,30.35,30.22,30.10,10,10,10,21,9,26,0.00,1,,54
2012-10-5,47,35,22,24,21,17,81,59,36,30.24,30.18,30.08,10,10,10,21,9,25,0.00,1,,37
2012-10-6,41,29,16,25,16,3,88,56,23,30.38,30.26,30.19,10,10,6,20,7,24,T,5,Snow,19
2012-10-7,51,30,9,7,3,-3,67,41,14,30.31,30.19,30.01,10,10,10,23,8,31,0.00,0,,251
2012-10-8,62,49,36,5,2,-5,25,16,6,29.99,29.88,29.75,10,10,10,33,21,41,0.00,0,,247
2012-10-9,58,44,30,28,16,1,70,42,14,30.09,29.94,29.78,10,10,10,26,9,37,0.00,0,,311
2012-10-10,69,45,20,24,17,10,88,49,10,30.15,30.00,29.85,10,10,10,28,11,36,0.00,0,,252
2012-10-11,71,55,38,33,27,20,57,38,19,29.96,29.90,29.84,10,10,8,21,9,25,T,4,Rain,246
2012-10-12,63,47,30,39,32,23,76,54,32,30.03,29.92,29.82,10,10,10,33,10,41,T,3,,217
2012-10-13,60,50,39,41,35,30,79,60,41,30.15,29.95,29.81,10,10,10,33,17,41,T,7,Rain,251
2012-10-14,61,50,38,35,31,24,85,56,27,30.25,30.16,30.08,10,10,10,30,15,37,0.00,1,,253
2012-10-15,65,53,40,33,29,23,65,43,21,30.07,29.95,29.85,10,10,10,36,18,44,0.00,1,,246
2012-10-16,65,52,39,45,34,22,71,51,30,29.87,29.68,29.51,10,10,3,48,26,62,0.05,2,Rain-Thunderstorm,253
2012-10-17,47,38,28,22,10,-2,61,37,13,30.12,29.91,29.63,10,10,10,41,24,51,0.00,0,,277
2012-10-18,55,39,23,19,12,9,55,36,17,30.26,30.16,30.09,10,10,10,29,15,35,0.00,0,,266
2012-10-19,61,49,36,23,19,15,48,34,19,30.09,29.95,29.81,10,10,10,32,15,39,0.00,1,,247
2012-10-20,69,53,36,21,19,17,40,28,15,29.79,29.67,29.55,10,10,10,31,13,39,0.00,1,,231
2012-10-21,67,51,34,33,21,17,60,38,15,29.78,29.69,29.62,10,10,10,30,11,38,0.00,2,,260
2012-10-22,64,53,42,40,34,29,89,58,27,29.75,29.64,29.52,10,10,5,36,17,47,0.11,4,Rain,192
2012-10-23,53,43,32,36,29,21,85,65,44,29.94,29.74,29.48,10,10,10,33,14,40,T,4,Rain,256
2012-10-24,33,28,22,29,27,21,92,85,78,30.12,29.95,29.90,10,4,0,12,6,14,0.17,8,Fog-Snow,343
2012-10-25,30,23,15,27,22,12,100,92,84,30.33,30.14,30.05,10,5,0,14,4,20,0.03,8,Fog-Snow,294
2012-10-26,32,26,20,23,20,18,96,77,58,30.48,30.34,30.20,10,9,1,30,14,36,0.01,6,Snow,250
2012-10-27,41,33,24,25,22,18,81,66,51,30.19,30.14,30.08,10,10,10,30,16,38,T,4,,251
2012-10-28,52,44,36,35,30,24,70,60,50,30.09,30.05,29.99,10,10,10,32,17,41,T,5,,240
2012-10-29,60,50,40,34,32,29,67,49,31,30.10,30.05,29.99,10,10,10,31,17,38,0.00,1,,252
2012-10-30,62,50,38,31,27,22,70,46,22,30.13,30.08,30.01,10,10,10,28,16,35,0.00,0,,253
2012-10-31,63,49,34,26,24,21,59,40,20,30.14,30.07,30.02,10,10,10,22,7,28,0.00,0,,241